Temperature
5 5 5 4 4 4 4 4 4 5 5 4 3 2 2 2 1 0 -0 -1 -1 -2 -2 -2 -3 -3 -3 -3 -3 -3 -3 -3 -3 -3 -4 -4 -4 -4 -4 -4 -5 -5 -5 -5
3 4 4 3 4 4 4 4 4 4 4 4 3 3 2 2 1 -0 -1 -1 -2 -2 -3 -3 -3 -3 -3 -4 -4 -4 -4 -4 -4 -4 -4 -4 -4 -5 -5 -5 -5 -5 -5 -5
2 3 3 2 3 3 3 3 3 3 3 2 2 1 1 1 0 -0 -1 -1 -2 -3 -3 -3 -4 -4 -4 -4 -4 -4 -4 -4 -4 -5 -5 -5 -5 -5 -5 -5 -5 -5 -6 -6
1 2 1 3 3 3 3 2 2 2 1 2 1 1 1 0 -0 -1 -2 -2 -2 -3 -3 -4 -4 -4 -4 -4 -4 -5 -5 -5 -5 -5 -5 -5 -5 -5 -6 -6 -6 -6 -6 -6
1 1 2 2 2 2 1 1 1 1 1 0 -0 -1 -1 -1 -1 -2 -2 -3 -3 -3 -4 -4 -5 -5 -5 -5 -5 -5 -5 -5 -5 -5 -6 -6 -6 -6 -6 -6 -6 -7 -7 -7
1 1 2 2 1 1 1 0 0 0 -1 -1 -1 -2 -3 -2 -2 -3 -3 -4 -4 -4 -4 -5 -5 -5 -5 -5 -5 -5 -6 -6 -6 -6 -6 -6 -6 -7 -7 -7 -7 -7 -7 -7
0 0 1 0 -0 1 0 0 -1 -0 -1 -1 -2 -3 -3 -3 -3 -4 -4 -4 -4 -5 -5 -5 -5 -6 -6 -6 -6 -6 -6 -6 -6 -7 -7 -7 -7 -7 -7 -8 -8 -8 -8 -8
-0 -0 0 -1 -1 -1 -1 -1 -1 -2 -2 -2 -3 -4 -4 -4 -4 -5 -5 -5 -5 -5 -5 -6 -6 -6 -6 -6 -6 -7 -7 -7 -7 -7 -7 -7 -8 -8 -8 -8 -8 -8 -8 -8
-0 -0 -1 -1 -1 -1 -1 -2 -2 -3 -3 -3 -4 -5 -5 -5 -6 -6 -6 -6 -6 -6 -6 -6 -7 -7 -7 -7 -7 -7 -7 -7 -7 -8 -8 -8 -8 -8 -9 -9 -9 -9 -9 -9
-2 -2 -2 -2 -2 -2 -2 -3 -3 -3 -4 -4 -5 -5 -6 -6 -6 -6 -7 -7 -7 -7 -7 -7 -7 -8 -8 -8 -8 -8 -8 -8 -8 -8 -8 -9 -9 -9 -9 -9 -9 -9 -9 -9
-3 -3 -3 -3 -3 -3 -3 -3 -4 -4 -5 -5 -5 -6 -7 -7 -7 -7 -7 -7 -7 -7 -8 -8 -8 -8 -8 -8 -8 -8 -8 -9 -9 -9 -9 -9 -9 -10 -10 -10 -10 -10 -10 -10
-3 -3 -3 -4 -4 -4 -4 -5 -5 -5 -6 -6 -6 -7 -7 -7 -7 -8 -8 -8 -8 -8 -8 -8 -8 -8 -9 -9 -9 -9 -9 -9 -9 -10 -10 -10 -10 -10 -10 -10 -10 -10 -10 -10
-4 -4 -4 -4 -5 -5 -5 -6 -6 -6 -6 -7 -7 -7 -7 -8 -8 -8 -8 -9 -9 -9 -9 -9 -9 -9 -9 -9 -9 -10 -10 -10 -10 -10 -10 -11 -11 -11 -11 -10 -11 -11 -11 -11
-5 -5 -6 -6 -6 -6 -6 -7 -7 -7 -7 -7 -8 -8 -8 -8 -8 -9 -9 -9 -9 -9 -9 -9 -9 -10 -10 -10 -10 -10 -10 -10 -11 -11 -11 -11 -11 -11 -11 -11 -11 -11 -11 -11
-6 -6 -7 -7 -7 -7 -7 -7 -7 -8 -8 -8 -8 -8 -9 -9 -9 -9 -9 -9 -10 -10 -10 -10 -10 -10 -10 -10 -10 -11 -11 -11 -11 -11 -11 -12 -12 -12 -12 -12 -12 -12 -12 -11
-7 -7 -7 -8 -8 -8 -8 -8 -8 -9 -9 -9 -9 -9 -9 -9 -10 -10 -10 -10 -10 -10 -10 -10 -10 -11 -11 -11 -11 -11 -11 -11 -12 -12 -12 -12 -12 -12 -12 -12 -13 -13 -13 -12
-8 -8 -8 -9 -9 -9 -9 -9 -9 -9 -9 -9 -9 -10 -10 -10 -10 -10 -10 -10 -10 -11 -11 -11 -11 -11 -11 -11 -12 -12 -12 -12 -12 -12 -12 -12 -13 -13 -13 -13 -13 -13 -13 -13
-8 -8 -9 -9 -9 -9 -9 -9 -9 -9 -10 -10 -10 -10 -10 -10 -10 -11 -11 -11 -11 -11 -11 -11 -11 -12 -12 -12 -12 -12 -12 -12 -12 -13 -13 -13 -13 -13 -13 -13 -13 -13 -13 -13
-9 -9 -9 -9 -9 -9 -9 -9 -10 -10 -10 -10 -10 -10 -10 -11 -11 -11 -11 -11 -12 -12 -12 -12 -12 -12 -12 -12 -12 -13 -13 -13 -13 -13 -13 -13 -13 -13 -13 -13 -13 -14 -14 -14
-9 -9 -9 -9 -10 -10 -10 -10 -10 -10 -10 -10 -11 -11 -11 -11 -12 -12 -12 -12 -12 -12 -12 -12 -13 -13 -13 -13 -13 -13 -13 -13 -13 -13 -13 -13 -13 -13 -14 -14 -14 -14 -14 -14
-10 -10 -10 -10 -10 -10 -10 -10 -10 -11 -11 -11 -11 -11 -12 -12 -12 -12 -12 -12 -12 -13 -13 -13 -13 -13 -13 -13 -13 -14 -14 -14 -14 -14 -14 -14 -14 -14 -14 -14 -14 -14 -14 -14
-10 -10 -10 -10 -10 -10 -11 -11 -11 -11 -11 -12 -12 -12 -12 -12 -12 -13 -13 -13 -13 -13 -13 -13 -14 -14 -14 -14 -14 -14 -14 -14 -14 -14 -14 -14 -14 -14 -14 -14 -14 -14 -14 -14
-11 -11 -11 -11 -11 -11 -11 -11 -12 -12 -12 -12 -12 -12 -13 -13 -13 -13 -13 -13 -14 -14 -14 -14 -14 -14 -14 -14 -14 -14 -14 -14 -14 -14 -14 -14 -15 -15 -15 -15 -15 -15 -14 -14
-11 -11 -11 -12 -12 -12 -12 -12 -12 -12 -13 -13 -13 -13 -13 -13 -13 -13 -14 -14 -14 -14 -14 -14 -14 -15 -15 -14 -14 -15 -15 -15 -15 -15 -15 -15 -15 -15 -15 -15 -15 -15 -15 -15
-12 -12 -12 -12 -12 -12 -12 -13 -13 -13 -13 -13 -13 -13 -13 -14 -14 -14 -14 -14 -14 -14 -14 -14 -15 -15 -15 -15 -15 -15 -15 -15 -15 -15 -15 -15 -15 -15 -15 -15 -15 -15 -15 -15
-12 -12 -12 -12 -12 -12 -13 -13 -13 -13 -13 -13 -13 -13 -14 -14 -14 -14 -14 -14 -14 -14 -14 -15 -15 -15 -15 -15 -15 -15 -15 -15 -15 -15 -15 -15 -15 -15 -15 -15 -15 -15 -15 -15
-12 -12 -12 -12 -13 -13 -13 -13 -13 -13 -13 -14 -14 -14 -14 -14 -14 -14 -14 -14 -14 -15 -15 -15 -15 -15 -15 -15 -15 -15 -15 -15 -15 -15 -15 -15 -15 -15 -15 -15 -15 -15 -15 -15
Wind_Speed
7 6 3 6 8 9 11 11 8 8 7 5 5 4 3 3 4 3 3 3 3 3 2 2 2 1 1 1 1 1 1 2 2 2 2 2 3 2 3 3 4 4 5 5
6 6 5 7 9 11 12 12 12 10 8 2 2 2 2 3 4 3 3 3 2 2 2 2 1 1 1 1 1 1 2 2 2 2 2 2 2 2 3 3 4 4 5 5
5 2 3 8 9 10 7 7 7 10 7 1 0 1 2 2 3 3 2 2 2 2 1 1 1 0 1 0 1 1 1 1 1 2 2 3 3 3 3 4 4 5 5 5
3 1 8 6 1 4 6 6 5 3 1 1 2 1 1 2 3 2 1 1 1 1 0 0 0 1 1 1 1 1 1 1 2 2 3 3 3 3 4 4 4 5 5 6
3 5 8 3 2 2 4 4 3 4 1 2 4 3 2 3 4 2 1 1 1 1 0 1 1 1 1 1 1 1 1 2 2 3 3 3 3 4 4 4 5 5 5 6
4 5 6 3 1 1 2 4 1 2 2 2 3 1 2 2 4 3 3 2 2 2 2 1 1 2 1 0 1 2 2 3 3 3 3 3 4 4 4 4 5 6 6 6
7 7 6 1 1 2 3 4 1 1 2 3 1 2 2 4 4 3 3 3 3 3 2 1 1 2 1 1 2 2 2 3 3 3 3 3 3 4 4 5 5 5 6 6
6 7 7 2 3 3 2 1 2 3 3 3 3 3 4 3 3 3 3 3 3 3 2 2 2 2 1 2 2 2 2 3 3 3 3 4 3 4 4 4 5 5 5 6
5 4 1 3 3 1 2 2 2 2 3 5 4 2 2 3 3 3 3 3 3 3 3 3 2 2 1 2 2 2 3 3 3 4 4 4 3 4 4 3 4 5 5 5
2 1 1 2 2 3 3 3 3 3 3 4 3 2 2 2 2 3 3 3 3 3 3 3 3 2 2 2 2 2 3 3 3 3 4 3 4 3 3 4 4 5 5 6
3 1 0 1 2 3 4 4 4 4 4 3 3 2 1 1 1 1 2 2 2 2 2 2 3 2 3 2 3 3 3 4 4 4 4 4 4 3 4 3 4 5 4 5
3 2 2 1 2 4 4 3 3 3 3 3 2 2 1 1 1 1 1 2 2 2 2 2 2 2 2 2 2 2 3 4 3 4 4 4 4 5 7 7 10 11 11 9
1 2 2 2 3 4 3 3 3 2 2 2 2 1 1 1 1 1 1 1 1 2 2 2 2 2 2 3 3 2 3 4 4 4 4 4 4 5 6 8 10 11 11 12
4 4 3 3 3 3 4 4 4 3 3 2 2 2 2 1 1 1 2 2 2 2 2 2 2 2 3 3 3 3 3 4 4 4 4 4 4 4 5 5 7 6 9 12
5 4 2 2 3 3 3 3 3 3 2 2 2 2 1 1 1 2 2 2 2 2 2 2 2 3 3 3 3 3 3 3 3 3 4 4 4 4 4 5 5 6 6 8
3 3 3 3 3 2 2 2 2 1 2 2 2 2 1 1 2 2 2 1 1 2 2 2 3 3 3 3 4 3 4 6 6 4 4 4 4 4 5 5 5 6 6 6
2 1 1 1 1 2 2 1 1 1 1 1 2 2 2 2 2 2 2 2 2 2 2 3 3 3 3 3 3 3 3 5 7 5 4 4 4 5 5 5 5 6 6 8
1 0 0 1 0 1 2 2 2 2 2 2 2 1 1 1 2 3 3 3 3 3 3 3 3 3 3 3 3 3 3 4 4 4 4 4 5 5 5 5 6 6 6 7
3 3 2 2 1 1 1 1 1 1 1 1 1 1 2 2 2 2 2 2 3 3 3 3 5 4 3 4 5 3 3 4 4 4 4 7 6 5 5 5 6 6 6 6
4 3 3 3 2 1 1 1 1 1 1 1 1 1 2 2 2 2 2 3 3 2 2 3 4 3 3 4 5 3 3 4 4 4 5 4 5 5 5 5 6 6 6 6
3 3 3 3 2 2 1 1 1 1 2 1 1 1 2 3 3 2 2 3 3 2 2 4 3 3 4 5 5 3 3 4 4 4 5 5 5 5 5 5 6 6 6 6
2 2 2 2 2 2 2 1 1 1 1 1 1 1 2 3 3 3 2 2 3 5 3 2 3 5 7 6 2 2 3 4 4 4 4 5 5 5 5 6 6 6 6 6
1 1 1 1 1 1 2 1 1 1 1 2 2 2 2 3 2 2 3 2 2 5 4 3 6 8 9 4 2 3 4 4 4 4 4 5 5 5 6 6 6 6 6 7
1 1 1 1 1 1 1 2 2 1 1 2 2 2 2 2 2 2 2 4 6 7 4 5 8 9 8 3 3 3 4 4 4 4 5 5 5 5 6 6 7 7 7 8
1 1 0 0 0 1 1 1 1 1 2 2 2 2 2 2 2 2 2 3 6 7 4 6 9 9 5 3 3 4 4 5 5 5 4 5 5 5 6 6 6 7 7 8
1 1 1 1 1 1 1 1 1 2 2 2 3 2 2 2 2 2 2 3 4 6 4 3 4 6 3 4 4 4 4 6 6 6 5 6 6 6 6 7 8 7 8 8
1 1 1 1 1 1 1 1 2 2 2 2 3 3 2 2 2 2 3 3 3 4 4 3 3 3 4 4 4 5 5 5 5 5 5 5 6 6 7 8 7 8 8 9
Wind_Direction
269 283 242 241 232 218 221 224 229 247 249 246 204 192 184 157 143 144 156 160 160 165 166 165 171 183 204 209 213 232 235 247 259 267 271 277 280 280 285 286 290 287 288 289
272 258 256 260 246 229 230 236 244 262 273 270 157 125 146 151 152 173 178 174 167 167 176 185 192 210 221 217 243 249 245 257 272 278 273 273 272 278 285 286 288 288 286 286
257 259 305 257 232 219 224 227 222 244 248 253 81 151 183 161 166 175 173 170 175 187 199 205 204 241 258 268 338 309 281 276 288 291 289 282 285 284 284 285 288 289 288 287
253 260 243 240 176 197 215 231 226 241 253 174 149 86 64 98 129 148 151 159 153 162 203 199 69 23 32 25 333 304 312 316 321 315 302 296 292 284 286 289 288 288 289 289
222 247 264 251 230 179 190 242 232 220 203 99 96 59 44 51 63 76 86 92 136 134 102 89 101 88 75 17 329 324 327 330 326 314 305 299 292 288 291 293 290 289 290 288
221 236 247 239 213 356 123 257 257 181 167 144 109 151 234 59 57 51 47 55 77 77 67 75 74 89 94 349 334 325 330 325 319 309 302 297 292 292 294 294 292 294 294 291
228 238 256 221 179 111 173 252 354 116 149 145 153 186 113 62 49 47 45 41 61 73 74 62 57 84 68 354 323 329 335 325 318 314 304 296 297 301 298 296 298 297 296 295
211 227 245 147 139 173 205 68 61 62 84 103 99 82 71 61 51 43 39 43 47 56 46 38 50 64 19 330 328 343 337 325 317 313 309 311 302 298 300 300 298 298 298 301
204 217 102 130 137 108 95 87 67 69 84 102 99 89 66 55 48 43 40 35 36 49 36 24 32 46 4 335 347 346 334 323 318 319 317 313 304 302 304 301 296 299 303 306
253 249 144 116 92 70 74 79 73 88 100 105 110 99 68 46 33 30 28 32 37 41 28 8 11 16 359 346 350 341 327 321 319 321 317 315 310 305 304 304 301 301 304 306
249 237 74 146 103 92 81 80 76 66 68 88 101 95 80 57 33 30 20 24 26 27 6 352 357 354 350 351 354 341 327 321 321 318 313 312 307 300 302 289 296 303 300 300
238 208 211 218 76 80 84 80 81 80 65 64 83 94 76 53 27 25 11 10 9 1 348 341 344 342 345 347 350 340 326 323 322 320 317 315 313 314 310 311 312 313 314 312
5 22 74 81 70 67 76 71 67 75 89 73 58 69 68 38 5 13 2 359 340 324 323 325 332 333 336 341 340 329 314 314 316 318 319 318 317 317 318 319 317 317 319 320
50 55 63 59 56 57 64 62 64 66 70 78 67 55 55 38 11 1 343 333 333 333 326 327 333 328 334 342 336 328 316 313 316 310 310 311 313 314 314 317 321 322 321 322
31 41 84 75 65 60 63 66 65 55 52 50 53 53 46 17 337 323 325 338 346 339 332 336 333 325 334 337 329 322 316 313 312 308 307 306 308 309 310 312 313 316 320 324
12 47 73 77 69 54 52 53 54 22 20 25 26 15 3 338 320 317 328 346 333 307 311 317 313 316 328 331 328 321 313 314 319 314 312 311 312 311 311 311 312 314 316 319
51 47 43 25 12 11 13 18 19 0 359 355 345 348 356 354 342 333 338 341 322 299 297 302 308 319 326 323 320 316 312 311 317 316 312 310 309 308 308 309 310 311 311 315
11 316 237 185 215 342 356 17 26 14 352 337 350 358 345 323 308 313 323 333 331 323 315 313 315 321 321 318 317 312 310 309 310 307 308 308 307 306 308 308 309 310 312 315
36 55 58 53 54 65 34 18 8 2 358 2 359 334 315 305 300 305 315 317 307 307 313 316 323 330 318 311 322 313 308 306 308 308 308 308 312 310 308 307 308 311 313 316
39 48 53 49 45 44 25 8 25 19 4 14 9 349 336 323 318 316 313 299 279 269 292 311 323 318 312 307 319 306 306 307 307 308 310 308 306 306 306 308 308 309 311 312
31 37 39 38 29 20 19 31 51 3 344 357 345 311 309 312 308 302 304 312 318 312 313 321 330 310 304 309 316 316 311 310 310 310 311 310 309 308 307 308 309 310 311 311
17 31 28 29 32 11 3 12 27 349 336 336 323 307 309 309 313 314 294 274 293 316 330 315 307 304 312 322 326 312 305 305 304 305 305 306 308 308 308 308 307 307 307 305
12 21 15 13 12 354 354 1 354 329 303 297 294 292 293 295 302 307 313 310 314 318 328 306 307 314 324 340 326 310 304 302 300 300 302 303 304 303 304 304 303 302 301 302
0 359 347 4 54 38 348 333 333 322 298 289 281 276 277 298 309 293 280 310 322 323 321 310 319 323 334 344 320 311 307 304 300 297 298 299 300 301 300 300 300 300 299 299
321 308 290 62 318 294 298 321 326 314 308 306 303 298 285 269 274 295 302 302 314 325 324 321 324 329 338 321 311 306 303 297 295 298 296 298 297 297 295 295 295 298 298 297
300 293 278 265 270 279 295 304 303 303 309 314 316 315 312 303 295 300 305 307 309 321 326 314 313 319 317 308 303 302 299 302 307 306 298 297 295 295 294 294 295 295 295 295
325 325 323 311 304 297 291 285 285 289 290 291 300 304 307 311 311 311 310 310 312 311 308 306 307 305 303 300 298 296 295 294 293 293 293 292 291 290 291 292 292 293 294 295
Height
1477 1474 1477 1478 1478 1479 1481 1479 1480 1472 1470 1470 1472 1474 1475 1477 1478 1480 1481 1482 1483 1483 1484 1485 1485 1485 1485 1485 1485 1485 1485 1484 1484 1484 1483 1483 1482 1481 1480 1479 1478 1477 1476 1474
1480 1475 1475 1476 1473 1474 1474 1474 1472 1470 1470 1468 1469 1471 1473 1475 1476 1477 1479 1480 1480 1481 1482 1482 1482 1482 1482 1482 1481 1481 1481 1481 1480 1480 1479 1479 1478 1477 1476 1475 1474 1472 1471 1470
1481 1475 1476 1477 1469 1468 1469 1468 1469 1470 1469 1468 1469 1471 1472 1473 1474 1475 1476 1477 1478 1478 1479 1479 1479 1479 1478 1478 1478 1478 1478 1477 1477 1476 1475 1475 1474 1473 1471 1470 1469 1468 1466 1465
1482 1480 1484 1465 1461 1461 1463 1464 1465 1465 1465 1466 1468 1470 1471 1472 1473 1474 1474 1475 1475 1476 1476 1476 1476 1476 1476 1476 1475 1475 1474 1474 1473 1472 1472 1471 1470 1468 1467 1466 1465 1463 1462 1460
1481 1480 1469 1464 1461 1461 1463 1464 1463 1464 1464 1466 1467 1468 1470 1471 1471 1472 1473 1473 1473 1473 1473 1473 1473 1473 1473 1472 1472 1471 1471 1470 1469 1469 1468 1467 1466 1465 1464 1462 1461 1459 1458 1456
1478 1477 1470 1461 1461 1459 1462 1466 1462 1462 1463 1465 1466 1471 1471 1470 1470 1470 1470 1471 1471 1471 1471 1470 1470 1470 1470 1469 1469 1468 1468 1467 1467 1466 1465 1463 1462 1461 1460 1459 1457 1455 1453 1452
1476 1473 1463 1462 1461 1461 1468 1465 1462 1461 1462 1464 1466 1468 1469 1468 1468 1469 1469 1469 1469 1468 1468 1468 1468 1468 1467 1466 1466 1466 1465 1464 1463 1462 1461 1460 1459 1458 1456 1455 1453 1451 1450 1448
1471 1471 1466 1462 1462 1464 1464 1462 1462 1462 1462 1464 1465 1466 1467 1467 1467 1467 1467 1467 1467 1466 1466 1466 1465 1465 1464 1464 1464 1463 1462 1461 1460 1459 1458 1457 1456 1454 1453 1451 1449 1447 1446 1444
1463 1464 1461 1460 1460 1461 1461 1462 1462 1462 1463 1463 1464 1465 1466 1466 1466 1466 1466 1465 1465 1465 1464 1464 1464 1463 1462 1462 1461 1460 1459 1458 1457 1456 1455 1454 1452 1451 1449 1448 1446 1444 1442 1440
1461 1460 1460 1460 1460 1460 1461 1461 1461 1462 1462 1463 1463 1464 1464 1464 1464 1464 1464 1464 1463 1463 1462 1462 1462 1461 1461 1460 1459 1458 1456 1455 1454 1453 1452 1451 1449 1448 1446 1445 1443 1441 1439 1437
1461 1460 1460 1460 1460 1460 1460 1461 1461 1461 1462 1462 1462 1463 1463 1463 1463 1462 1462 1462 1462 1461 1461 1460 1460 1459 1459 1458 1456 1455 1454 1453 1451 1450 1449 1448 1446 1445 1443 1442 1441 1439 1436 1434
1459 1458 1459 1460 1460 1460 1459 1460 1460 1460 1461 1461 1461 1461 1461 1461 1461 1461 1461 1460 1460 1460 1459 1458 1458 1457 1456 1455 1454 1453 1451 1450 1449 1448 1446 1445 1443 1442 1440 1439 1437 1436 1434 1432
1457 1457 1457 1458 1458 1458 1458 1459 1459 1459 1459 1459 1460 1460 1460 1460 1460 1459 1459 1459 1458 1458 1457 1456 1456 1455 1454 1453 1452 1451 1450 1448 1447 1446 1444 1442 1441 1439 1437 1435 1434 1432 1430 1428
1456 1456 1457 1457 1458 1458 1458 1458 1458 1458 1458 1458 1459 1459 1458 1458 1458 1458 1457 1457 1456 1456 1455 1455 1454 1453 1452 1451 1450 1449 1448 1446 1445 1443 1442 1440 1438 1437 1435 1432 1430 1428 1426 1424
1456 1456 1457 1457 1457 1457 1457 1457 1457 1457 1457 1457 1457 1457 1457 1456 1456 1456 1456 1455 1455 1454 1453 1453 1452 1451 1450 1449 1448 1446 1445 1444 1443 1441 1439 1438 1436 1434 1432 1430 1428 1425 1423 1421
1456 1456 1456 1456 1456 1456 1457 1456 1456 1456 1456 1456 1456 1456 1456 1455 1455 1454 1454 1453 1453 1452 1451 1450 1450 1449 1448 1447 1445 1444 1443 1442 1440 1439 1437 1435 1433 1432 1430 1428 1425 1423 1421 1418
1456 1455 1455 1455 1456 1456 1456 1456 1455 1455 1455 1455 1455 1454 1454 1454 1453 1453 1452 1452 1451 1450 1449 1449 1448 1447 1446 1445 1443 1442 1441 1439 1438 1436 1434 1433 1431 1429 1427 1425 1423 1421 1419 1416
1456 1456 1455 1455 1455 1455 1455 1455 1455 1454 1454 1454 1453 1453 1453 1452 1451 1450 1450 1449 1449 1448 1447 1446 1445 1444 1443 1442 1441 1440 1438 1437 1435 1434 1432 1430 1428 1427 1425 1423 1420 1418 1416 1414
1455 1455 1455 1455 1455 1454 1454 1454 1454 1453 1453 1453 1452 1452 1451 1450 1449 1449 1448 1447 1446 1445 1445 1444 1443 1442 1441 1440 1439 1437 1436 1434 1433 1431 1430 1428 1426 1424 1422 1420 1418 1415 1413 1411
1455 1455 1454 1454 1454 1454 1453 1453 1453 1452 1452 1452 1451 1450 1449 1449 1448 1447 1446 1445 1444 1443 1442 1442 1441 1439 1438 1437 1436 1435 1433 1432 1430 1428 1427 1425 1423 1421 1419 1417 1415 1413 1410 1408
1455 1455 1454 1454 1454 1453 1453 1452 1452 1451 1451 1451 1450 1449 1448 1447 1446 1445 1444 1443 1443 1442 1441 1440 1438 1437 1436 1435 1434 1432 1431 1429 1427 1425 1424 1422 1420 1418 1416 1414 1412 1409 1407 1405
1455 1454 1454 1454 1453 1453 1452 1452 1451 1451 1450 1449 1449 1448 1447 1446 1445 1444 1443 1442 1441 1440 1438 1437 1436 1435 1434 1432 1431 1429 1428 1426 1424 1423 1421 1419 1417 1415 1413 1411 1408 1406 1404 1401
1455 1454 1454 1453 1453 1452 1451 1451 1450 1450 1449 1448 1447 1446 1445 1444 1443 1442 1441 1440 1439 1437 1436 1435 1433 1432 1431 1429 1428 1426 1425 1423 1421 1420 1418 1416 1414 1412 1410 1407 1405 1403 1400 1398
1454 1453 1453 1452 1452 1451 1450 1450 1449 1449 1448 1447 1446 1445 1444 1443 1442 1441 1440 1438 1437 1435 1434 1432 1431 1430 1428 1426 1425 1423 1422 1420 1418 1416 1415 1413 1411 1409 1406 1404 1402 1399 1397 1394
1453 1453 1452 1451 1451 1450 1450 1449 1448 1447 1446 1445 1444 1444 1443 1441 1440 1439 1438 1436 1435 1433 1431 1430 1429 1427 1425 1424 1422 1420 1418 1417 1415 1413 1411 1409 1407 1405 1403 1400 1398 1395 1393 1390
1452 1452 1451 1451 1450 1449 1448 1448 1447 1446 1445 1443 1443 1442 1441 1439 1438 1437 1435 1434 1432 1431 1429 1427 1426 1424 1422 1421 1419 1417 1415 1413 1411 1409 1407 1405 1403 1401 1398 1396 1394 1391 1389 1386
1451 1451 1450 1449 1449 1448 1447 1446 1445 1444 1443 1442 1440 1440 1438 1437 1436 1435 1433 1431 1430 1428 1427 1425 1423 1421 1419 1417 1415 1413 1411 1409 1407 1405 1403 1401 1399 1396 1394 1392 1389 1387 1384 1382